Home > Weather > Vilnius > Past weeks

Flag for Lithuania Weather for the Past 2 Weeks in Vilnius, Lithuania

Now
32 °F

Partly sunny.


Feels Like: 24 °F
Forecast: 31 / 36 °F
Wind: 9 mph from Southeast

Location: Vilnius Airport

Current Time: Feb 13, 2016 at 9:14:23 AM

Latest Report: Feb 13, 2016 at 8:50 AM


Visibility: N/A

Pressure: 29.68 "Hg

Humidity: 93%

Dew point: 30 °F

Location of VilniusLocation

Historic Weather in Vilnius — Graph

°F

Vilnius Temperature Yesterday

Maximum temperature yesterday: 36 °F (at 2:50 PM)
Minimum temperature yesterday: 32 °F (at 12:50 AM)
Average temperature yesterday: 33 °F

High & Low Weather Summary for the Past Weeks

 TemperatureHumidityPressure
High48 °F (Feb 9, 1:50 PM)100% (Jan 30, 2:20 AM)30.15 "Hg (Jan 30, 2:20 AM)
Low27 °F (Feb 6, 8:50 AM)62% (Feb 9, 2:20 PM)29.24 "Hg (Feb 11, 5:50 AM)
Average36 °F85%29.64 "Hg
* Reported Jan 29 7:20 AM — Feb 13 7:50 AM, Vilnius, Weather by CustomWeather, © 2016

Note: Actual official high and low records may vary slightly from our data, if they occured in-between our weather recording intervals... More about our weather records

Advertising

Vilnius Weather History for the Previous 24 Hours

 ConditionsComfort  
Time TempWeatherWind HumidityBarometerVisibility
7:50 AM
Sat, Feb 13
32 °FBroken clouds.10 mph93%29.71 "HgN/A
7:20 AM34 °FPartly cloudy.10 mph87%29.71 "HgN/A
6:50 AM32 °FPassing clouds.12 mph93%29.71 "HgN/A
6:20 AM32 °FPartly cloudy.10 mph93%29.71 "HgN/A
5:20 AM32 °FPartly cloudy.9 mph93%29.71 "HgN/A
4:20 AM32 °FPartly cloudy.10 mph93%29.71 "HgN/A
3:20 AM30 °FPartly cloudy.7 mph100%29.71 "Hg6 mi
2:50 AM30 °FClear.6 mph100%29.71 "Hg4 mi
2:20 AM30 °FClear.8 mph100%29.71 "Hg4 mi
1:50 AM32 °FIce fog.8 mph93%29.71 "Hg3 mi
1:20 AM32 °FIce fog.8 mph93%29.71 "Hg3 mi
12:50 AM32 °FIce fog.10 mph100%29.71 "Hg3 mi
12:20 AM32 °FIce fog.9 mph100%29.71 "Hg2 mi
11:20 PM
Fri, Feb 12
32 °FIce fog.9 mph100%29.71 "Hg3 mi
10:50 PM34 °FFog.10 mph93%29.71 "Hg2 mi
10:20 PM34 °FFog.9 mph93%29.71 "Hg2 mi
9:50 PM34 °FSnow flurries. Fog.10 mph93%29.71 "Hg3 mi
9:20 PM34 °FFog.10 mph93%29.71 "Hg2 mi
8:50 PM34 °FFog.12 mph93%29.68 "Hg3 mi
8:20 PM34 °FFog.13 mph93%29.68 "Hg3 mi
7:50 PM34 °FFog.12 mph93%29.68 "Hg3 mi
7:20 PM34 °FFog.13 mph93%29.68 "Hg3 mi
6:50 PM34 °FPartly cloudy.15 mph93%29.68 "Hg4 mi
6:20 PM34 °FMostly cloudy.13 mph93%29.68 "Hg4 mi
5:50 PM34 °FFog.10 mph93%29.65 "Hg3 mi
5:20 PM34 °FFog.12 mph100%29.65 "Hg3 mi
4:50 PM34 °FLight rain. Fog.13 mph100%29.65 "Hg2 mi
4:20 PM34 °FLight rain. Fog.13 mph100%29.65 "Hg2 mi
3:50 PM34 °FFog.10 mph100%29.65 "Hg3 mi
3:20 PM34 °FFog.12 mph100%29.62 "Hg3 mi
2:50 PM36 °FLight rain. Fog.13 mph93%29.62 "Hg3 mi
2:20 PM34 °FLight rain. Fog.10 mph100%29.62 "Hg2 mi
1:50 PM34 °FRain. Fog.10 mph93%29.62 "Hg2 mi
12:50 PM34 °FLight rain. Fog.12 mph93%29.59 "Hg2 mi
12:20 PM34 °FLight rain. Fog.14 mph93%29.59 "Hg2 mi
11:50 AM34 °FFog.12 mph93%29.59 "Hg3 mi
11:20 AM34 °FFog.9 mph93%29.59 "Hg3 mi
10:50 AM34 °FFog.13 mph93%29.59 "Hg3 mi
10:20 AM34 °FFog.14 mph93%29.56 "Hg3 mi
9:50 AM34 °FFog.12 mph93%29.56 "Hg3 mi
9:20 AM34 °FLight rain. Low clouds.12 mph93%29.53 "Hg4 mi
Weather by CustomWeather, © 2016

See weather overviewHow to use our weather pages